Content
SEND FEEDBACK

Daily
Averages
Monthly
Summary
Canada

MONTREAL TRUDEAU AIRPORT, QUEBEC


Home > North America > Canada > Quebec
Elevation: 118 feet     Latitude: 45 28N     Longitude: 73 45W

WEATHER
 
SELECT A DAY
Number of Records: 198,548;   Date Range: 1/1/95 - 8/27/14
 
SHARE

PRINT THIS DATA

[ ← Previous Day ]
WEATHER ALMANAC - AUGUST 14, 2013
[ Next Day → ]
[ °C ]   °F
Weather ElementAverageHighLow
Temperature62.2 °F69.8 °F (4:00 pm)57.2 °F (6:46 am)
Dewpoint53.4 °F60 °F (2:00 am)46 °F (2:00 pm)
Humidity74.4 %100 % (7:49 am)34 % (2:00 pm)
Barometer29.76 in29.93 in (11:00 pm)29.68 in (1:38 am)
Wind Speed9.7 mph16.1 mph (1:00 pm)
Wind Gust21.9 mph (2:00 pm)
Weather ElementAverage
Visibility11.1 mi
Wind DirectionW (265.7 °)

Weather ElementTotal
Precipitation---
Heating Degree Days1.5 (Base 65)
Growing Degree Days13.5 (Base 50)
Averaged from 35 records on August 14, 2013
WEATHER CONDITIONS BREAKOUT
WIND DIRECTION BREAKOUT
WEATHER BY HOUR - AUGUST 14, 2013
[ °C ]   °F
Local TimeTemperatureDewpointHumidityBarometerVisibilityWind DirectionWind SpeedGust SpeedPrecipitationEventsConditions
1:00 AM62.6 °F59.0 °F88 %29.69 in10.0 miESE (120°)4.6 mphRainLight Rain
1:38 AM62.6 °F59.0 °F88 %29.68 in10.0 miWNW (290°)2.3 mphRainLight Rain
2:00 AM62.0 °F60.0 °F90 %29.68 in7.0 miENE (60°)2.3 mphRainLight Rain
2:00 AM62.6 °F59.0 °F88 %29.68 in8.0 miVariable4.6 mphRainLight Rain
3:00 AM60.8 °F57.2 °F88 %29.69 in10.0 miSW (230°)9.2 mphRainLight Rain
4:00 AM59.0 °F55.4 °F88 %29.68 in10.0 miWSW (240°)9.2 mphOvercast
5:00 AM59.0 °F55.4 °F88 %29.69 in12.0 miWSW (250°)10.4 mphOvercast
5:22 AM59.0 °F55.4 °F88 %29.69 in12.0 miWSW (250°)11.5 mphLight Drizzle
6:00 AM59.0 °F55.4 °F88 %29.68 in12.0 miWSW (250°)11.5 mphOvercast
6:46 AM57.2 °F55.4 °F94 %29.70 in4.0 miWSW (250°)10.4 mphLight Drizzle
7:00 AM57.2 °F55.4 °F94 %29.70 in1.5 miWest (260°)9.2 mphLight Drizzle
7:14 AM57.2 °F55.4 °F94 %29.71 in4.0 miWest (270°)9.2 mphLight Drizzle
7:49 AM57.2 °F57.2 °F100 %29.71 in3.0 miWest (260°)10.4 mphLight Drizzle
8:00 AM58.0 °F56.0 °F92 %29.72 in3.0 miWSW (250°)12.7 mphRainLight Drizzle
8:00 AM57.2 °F55.4 °F94 %29.72 in3.0 miWest (260°)12.7 mphLight Drizzle
8:43 AM59.0 °F57.2 °F94 %29.72 in2.0 miNW (320°)8.1 mphLight Drizzle
9:00 AM59.0 °F57.2 °F94 %29.72 in8.0 miNNW (340°)9.2 mphLight Drizzle
9:28 AM59.0 °F55.4 °F88 %29.73 in15.0 miNNW (340°)12.7 mphMostly Cloudy
10:00 AM60.8 °F55.4 °F82 %29.73 in15.0 miNNW (340°)11.5 mphMostly Cloudy
11:00 AM62.6 °F53.6 °F72 %29.76 in15.0 miNW (320°)5.8 mphMostly Cloudy
12:00 PM66.2 °F51.8 °F60 %29.77 in15.0 miNNW (330°)8.1 mphMostly Cloudy
12:11 PM66.2 °F51.8 °F60 %29.77 in15.0 miNW (320°)12.7 mph19.6 mphMostly Cloudy
1:00 PM66.2 °F48.2 °F52 %29.78 in15.0 miWNW (290°)16.1 mphMostly Cloudy
2:00 PM68.0 °F46.0 °F34 %29.80 in15.0 miNW (320°)13.8 mphPartly Cloudy
2:00 PM68.0 °F46.4 °F46 %29.80 in15.0 miNW (320°)15.0 mph21.9 mphMostly Cloudy
3:00 PM68.0 °F50.0 °F52 %29.81 in15.0 miWNW (300°)10.4 mphMostly Cloudy
4:00 PM69.8 °F50.0 °F49 %29.81 in15.0 miWNW (300°)13.8 mphMostly Cloudy
5:00 PM68.0 °F50.0 °F52 %29.83 in15.0 miNW (310°)15.0 mphMostly Cloudy
6:00 PM66.2 °F48.2 °F52 %29.85 in15.0 miWNW (300°)10.4 mph18.4 mphMostly Cloudy
7:00 PM66.2 °F48.2 °F52 %29.87 in15.0 miWNW (290°)9.2 mphMostly Cloudy
8:00 PM65.0 °F50.0 °F47 %29.88 in15.0 miWest (270°)9.2 mphScattered Clouds
8:00 PM66.2 °F50.0 °F56 %29.88 in15.0 miWest (270°)9.2 mphScattered Clouds
9:00 PM64.4 °F48.2 °F56 %29.90 in15.0 miWest (270°)6.9 mphPartly Cloudy
10:00 PM59.0 °F50.0 °F72 %29.92 in15.0 miWSW (250°)6.9 mphPartly Cloudy
11:00 PM59.0 °F50.0 °F72 %29.93 in15.0 miWest (260°)6.9 mphPartly Cloudy
Hourly data recorded from CYUL, located miles away from Montreal Trudeau Airport, Quebec







STORIES FROM OUR PARTNERS